Location: *
(50.5492°N, 7.7469°E)
Time: 05:51:29
(UTC+00:00)

ATLAS 3B R/B - Pass Details

Date: 21 October 2019
Orbit: 1029 x 1166 km, 63.8° (Epoch: 12 November)

Event Time Altitude Azimuth Distance (km) Brightness Sun altitude
Rises 18:25:23 0° 191° (SSW) 3,824 5.7 -19.7°
Reaches altitude 10° 18:28:11 10° 184° (S) 2,857 4.9 -20.1°
Maximum altitude 18:34:19 39° 118° (ESE) 1,499 3.0 -21.1°
Enters shadow 18:35:05 38° 102° (ESE) 1,529 3.0 -21.2°
